GFSCGP_850_temp_276.txt.gz
Temp
27 27 28 29 30 31 32 32 32 33 34 33 32 32 33 34 34 33 33 32 31 28 24 26 17 19 25 24 24 23 22 21 20 19 18 17 16 15 15 14 14 14 14 14
28 27 30 31 32 32 31 31 31 33 34 33 32 32 33 34 34 33 33 30 27 24 25 24 19 15 19 23 22 22 21 20 19 19 17 15 14 14 13 13 13 14 14 13
27 29 30 30 31 30 30 30 30 31 33 33 32 30 31 33 34 33 32 29 27 24 23 21 20 18 20 21 20 19 18 17 17 16 16 14 14 14 13 12 12 12 13 12
29 30 31 30 30 30 28 31 31 31 31 30 32 29 31 33 33 32 31 28 26 26 22 20 19 17 17 17 17 16 16 16 15 15 15 14 13 13 13 12 12 12 12 11
28 29 30 29 30 30 29 31 31 31 30 30 31 30 31 33 31 30 28 26 24 24 23 21 18 16 15 14 15 16 17 16 15 15 14 13 13 12 12 12 12 12 10 10
29 31 31 30 31 30 31 30 30 30 30 28 29 30 31 31 31 28 26 25 23 22 20 18 17 16 15 14 13 15 14 14 13 13 13 13 13 13 12 12 11 10 10 10
29 30 31 31 30 30 30 29 26 26 27 27 30 30 31 31 29 28 26 24 23 21 20 18 17 16 15 14 12 12 13 13 13 13 13 13 13 12 11 12 11 11 9 9
27 27 30 31 29 29 29 29 27 26 27 29 31 30 30 31 29 27 26 24 23 22 21 20 18 17 16 14 13 11 11 11 11 12 13 13 12 11 9 9 9 8 7 7
27 28 31 31 31 30 29 28 29 28 29 28 29 28 30 29 28 27 25 24 24 23 21 20 18 16 15 14 13 12 11 11 12 12 12 12 12 11 9 8 8 7 7 7
28 27 31 31 31 30 30 31 28 28 25 25 29 28 28 27 27 27 26 25 24 22 20 19 18 16 14 13 12 12 11 10 10 11 11 10 8 9 8 7 6 6 6 6
29 27 29 31 29 29 29 28 29 29 28 26 26 27 28 28 28 27 27 25 23 22 20 19 17 15 14 13 12 11 11 11 10 10 10 9 9 8 7 6 6 6 6 6
29 28 27 28 31 31 30 29 29 27 26 28 27 26 30 29 29 28 28 26 23 22 20 18 16 15 14 14 12 11 11 10 10 10 10 9 9 7 6 5 5 5 5 5
29 27 25 26 29 30 28 29 29 28 27 26 25 27 30 29 30 29 28 26 23 22 20 19 17 15 14 13 12 10 10 10 10 10 8 8 7 6 6 5 5 5 5 4
27 27 25 25 27 29 28 28 29 28 26 26 27 27 28 26 26 24 28 25 23 22 20 19 17 15 14 13 12 11 9 9 10 10 8 7 7 7 6 6 5 5 5 4
26 25 27 27 27 28 28 28 28 28 28 26 27 27 26 24 19 19 18 25 23 22 20 18 17 15 14 12 11 10 9 10 10 8 7 7 6 6 6 6 5 5 5 5
26 24 26 26 27 28 28 29 29 28 29 28 28 27 27 23 23 21 22 25 23 22 20 18 17 15 13 12 11 10 9 9 9 7 7 7 7 7 6 6 6 6 5 5
25 25 25 24 26 27 26 28 29 29 29 29 27 24 22 25 24 26 25 25 23 21 20 18 16 15 13 12 10 9 9 9 7 8 8 8 7 7 7 7 6 6 6 5
24 24 25 24 25 23 28 30 30 29 29 30 27 27 26 24 23 23 23 24 23 21 19 17 16 14 12 10 9 9 9 9 8 8 8 8 8 7 7 7 7 6 5 5
25 24 24 24 24 26 28 27 28 28 28 29 27 26 25 23 22 21 21 21 20 19 18 16 15 13 11 9 8 9 9 8 8 8 8 7 7 7 6 6 6 5 5 5
20 15 24 24 23 23 24 23 23 28 25 27 27 25 25 24 23 20 19 19 18 17 16 14 13 11 9 8 9 9 8 8 8 7 7 7 7 6 6 6 6 5 5 5
16 14 20 24 23 22 22 19 21 23 23 26 27 26 25 22 20 18 17 17 16 15 13 12 10 9 8 9 8 7 8 8 7 6 6 7 7 6 7 6 6 6 6 6
19 15 22 24 22 20 20 20 19 21 24 24 22 20 18 18 17 17 16 15 14 13 11 11 10 8 8 9 7 7 7 7 7 6 6 7 6 6 6 6 6 7 7 7
20 18 21 24 25 19 20 22 23 23 23 24 22 20 19 18 17 16 15 14 13 12 11 11 9 7 7 8 7 7 7 7 6 7 7 7 7 6 7 6 7 7 7 6
24 21 20 23 22 22 18 19 20 21 23 23 21 20 19 18 17 16 15 13 12 12 11 10 9 8 7 8 7 8 7 7 6 7 6 6 6 7 7 7 7 7 7 6
19 23 21 23 23 21 20 20 20 22 22 22 21 20 19 18 17 16 14 13 13 11 11 10 9 8 8 8 8 7 7 6 6 6 7 7 6 6 7 7 7 8 7 7
15 13 20 21 21 18 16 20 21 22 21 21 20 20 19 18 17 16 14 13 12 11 10 10 9 9 9 9 8 7 7 6 6 6 6 6 6 7 7 7 7 8 7 6

GFSCGP_850_temp_279.txt.gz
Temp
26 22 20 22 23 25 26 26 27 27 30 28 27 27 27 32 32 32 25 23 21 22 22 25 26 23 23 22 21 20 22 20 20 18 18 18 17 17 16 16 15 14 14 14
23 22 23 26 27 27 27 26 25 27 29 29 27 28 30 29 30 30 24 24 22 19 21 21 22 23 24 22 20 18 20 19 19 18 17 17 16 15 15 14 14 14 13 13
22 24 27 27 27 27 26 28 26 26 28 28 30 28 29 29 30 25 25 24 24 23 22 20 20 20 20 17 16 17 20 20 20 20 16 16 15 14 14 13 13 14 13 12
23 26 27 27 27 27 26 29 28 27 25 23 27 22 25 26 26 24 23 21 20 19 19 18 17 16 16 15 15 16 18 17 16 15 15 14 14 13 13 13 13 12 12 11
24 25 25 26 27 28 27 28 27 27 25 25 25 22 24 26 26 22 22 20 19 19 19 18 17 16 15 15 15 15 16 16 15 15 15 15 13 13 13 12 11 11 10 9
25 29 27 27 29 28 29 27 25 25 23 20 23 24 25 24 24 22 22 21 20 18 18 17 16 15 15 14 14 15 16 17 16 15 14 13 13 12 12 12 12 11 10 9
24 26 27 29 27 27 27 25 20 20 20 20 24 24 26 26 24 23 22 20 19 19 18 17 16 15 15 16 16 16 16 15 14 14 14 14 14 13 13 13 12 11 10 9
22 22 26 28 26 25 24 22 18 20 20 23 25 23 23 24 24 23 22 21 20 18 17 16 15 14 13 13 13 13 13 14 14 14 14 13 13 13 12 12 11 10 9 8
22 23 27 28 29 26 25 23 23 22 23 21 24 26 25 24 23 23 22 21 20 19 18 17 16 15 14 13 13 13 14 13 13 13 13 13 13 12 11 10 9 9 8 8
24 22 26 28 28 27 25 25 23 19 20 21 23 24 22 23 22 22 21 22 21 20 19 17 16 15 14 13 12 13 13 13 12 12 12 12 12 11 10 9 8 8 8 7
24 21 24 25 25 25 24 23 23 20 20 19 20 21 23 23 22 21 22 23 21 20 18 17 16 14 14 13 12 12 12 12 12 12 12 11 10 9 9 8 7 7 6 6
23 22 21 24 26 27 24 23 22 18 22 20 19 20 25 23 24 23 23 21 21 20 18 17 15 14 14 12 12 12 11 11 11 11 11 10 10 9 8 6 6 6 6 5
24 20 21 23 23 25 25 25 23 21 20 21 19 19 23 25 24 24 23 21 20 19 17 16 15 14 13 13 12 12 11 11 11 11 10 9 8 7 7 6 6 6 5 5
26 19 22 21 23 24 26 26 25 21 19 21 21 23 24 19 18 17 18 19 18 17 16 16 15 14 14 13 12 11 11 11 11 10 9 8 7 7 6 6 6 6 5 5
21 20 22 23 25 26 25 25 25 23 22 21 23 23 21 19 17 16 18 18 17 16 17 16 15 14 14 13 12 11 11 11 10 10 8 8 7 7 6 6 6 6 6 5
20 20 22 22 25 26 25 26 25 26 25 24 24 24 22 20 18 16 17 18 17 18 18 17 15 15 14 13 12 11 11 10 10 9 8 7 7 7 7 7 6 6 6 5
19 19 19 20 23 25 23 24 25 25 25 25 23 21 20 19 20 18 18 19 18 19 18 16 16 15 14 13 12 11 10 10 10 9 8 8 8 7 7 7 6 6 6 6
20 18 18 19 21 20 23 25 26 24 26 24 21 21 20 20 21 22 23 20 19 19 17 17 15 14 13 12 11 11 11 10 9 8 8 8 8 7 7 6 6 6 6 6
18 18 18 17 19 22 23 25 24 23 23 23 21 21 21 21 21 19 21 21 19 18 17 16 15 14 13 12 12 11 10 9 8 8 8 8 7 7 6 6 6 6 6 6
19 17 19 18 19 19 23 21 21 24 20 20 23 20 20 21 16 15 18 19 18 17 16 15 14 13 13 12 11 10 9 8 8 8 8 7 6 6 6 6 6 6 7 7
16 15 16 18 19 20 20 20 23 20 17 19 21 20 21 18 18 17 17 17 17 16 15 14 13 13 12 11 10 9 8 8 8 8 7 7 7 6 6 6 6 7 7 6
15 13 13 13 14 16 20 20 19 18 19 20 19 18 17 17 17 17 16 15 15 14 13 13 13 12 11 10 9 8 8 8 7 7 7 6 6 6 6 6 7 7 7 7
15 14 13 14 13 15 17 21 21 21 19 18 18 17 17 16 16 15 14 14 13 13 12 11 11 10 10 9 8 8 7 7 7 6 6 6 6 6 7 7 7 7 7 7
16 17 15 16 16 15 19 19 20 21 20 20 19 17 17 16 15 14 13 13 12 11 11 11 10 10 9 9 8 7 7 7 6 6 7 6 6 6 7 7 7 7 7 7
13 14 13 17 17 17 18 20 20 20 20 19 18 17 16 16 15 14 13 12 11 11 10 10 9 9 9 8 7 7 7 7 6 7 6 6 7 7 7 7 7 7 7 6
11 11 12 14 14 16 18 19 20 20 20 19 18 17 17 17 15 14 13 12 12 11 10 10 9 9 8 8 8 7 7 7 6 6 6 6 6 6 7 7 7 7 7 6

GFSCGP_850_temp_285.txt.gz
Temp
22 19 18 19 19 20 21 21 21 22 22 23 22 20 21 21 22 22 23 24 24 22 22 22 24 23 23 24 23 23 21 20 20 20 19 18 19 18 17 16 16 15 15 14
21 18 19 21 21 21 21 21 20 21 22 22 22 22 23 20 21 23 23 23 23 21 21 22 23 23 22 22 22 21 20 19 19 19 18 17 18 17 16 15 15 14 14 13
19 21 21 22 21 22 21 21 20 21 23 23 23 22 20 20 20 22 20 22 22 22 21 21 21 21 22 22 21 20 20 19 19 19 19 17 16 16 15 15 14 14 13 13
19 21 22 21 21 21 20 21 22 22 23 22 23 20 20 19 18 18 18 18 18 18 19 21 20 20 21 20 20 19 19 19 19 19 18 17 15 15 15 14 14 14 13 12
20 22 21 21 21 21 21 22 22 22 22 21 22 20 19 18 19 18 17 17 17 18 20 18 19 19 20 20 19 20 18 18 18 18 17 16 15 15 15 14 14 12 11 11
21 23 22 22 23 22 23 24 21 17 17 19 21 20 19 18 18 18 17 18 17 17 18 18 18 18 19 19 20 17 17 17 17 16 17 16 15 14 14 13 12 11 11 12
20 21 22 24 22 22 22 19 17 19 18 18 20 19 20 21 19 21 18 18 19 18 18 17 18 18 19 19 16 16 17 17 17 17 16 14 14 13 12 12 12 12 12 11
18 18 21 23 22 21 20 18 16 19 18 18 18 20 21 17 19 21 18 16 16 17 18 18 18 17 17 16 17 16 16 16 15 15 14 13 13 13 13 14 13 11 10 9
17 18 21 23 23 22 22 20 19 18 17 17 18 21 20 17 16 16 15 15 15 16 16 16 16 16 15 15 16 15 15 15 14 14 14 14 14 14 13 12 10 9 8 8
19 19 22 23 24 23 22 21 20 15 19 19 18 20 19 16 15 15 15 15 15 15 16 16 15 14 14 16 16 15 14 14 14 13 14 14 13 12 11 9 9 8 7 7
19 18 22 22 21 20 20 20 18 16 15 17 17 17 17 18 16 16 16 15 15 15 16 15 15 15 16 16 15 15 14 13 13 14 13 12 11 11 9 9 8 7 6 6
20 15 17 20 22 22 20 20 18 16 18 15 15 17 20 18 17 17 16 16 17 17 16 16 16 15 16 15 14 14 14 14 13 12 11 10 10 9 9 8 7 6 6 5
19 15 15 16 19 20 21 21 19 16 15 16 17 17 19 18 18 18 16 16 17 16 16 16 16 15 15 15 15 14 14 13 12 11 10 9 9 8 8 7 7 6 6 5
19 14 15 15 18 19 20 20 19 18 15 18 16 21 20 16 17 17 17 16 17 16 17 16 14 14 14 14 14 13 13 11 10 10 10 9 8 8 7 7 6 6 6 5
15 15 15 16 17 18 20 21 20 18 18 18 21 18 20 17 17 17 17 15 14 14 14 14 15 14 13 13 12 12 11 10 10 10 9 9 8 8 7 7 6 6 6 6
12 15 17 17 18 19 19 21 22 20 20 19 20 19 18 18 18 17 16 14 14 14 14 15 15 14 14 13 13 12 11 10 10 10 9 9 8 8 7 7 6 6 6 6
12 13 14 14 17 18 18 20 21 21 20 21 20 20 14 15 17 17 16 15 14 16 15 16 15 15 15 14 13 12 11 10 10 9 9 9 8 7 7 6 6 6 6 6
11 13 13 13 17 17 18 19 21 21 21 19 20 17 16 16 17 17 16 16 15 15 17 16 15 15 15 14 12 11 11 10 10 9 9 8 8 7 7 6 6 6 6 6
11 11 13 14 13 16 20 21 22 20 20 18 19 17 16 16 16 16 16 16 17 19 18 17 17 16 15 13 12 11 10 10 10 9 8 8 7 7 6 6 6 6 6 6
11 12 14 12 14 14 18 21 23 22 19 19 17 15 15 16 15 14 17 17 17 17 18 18 16 15 13 12 11 11 11 10 9 9 8 7 7 7 6 6 6 6 6 6
11 11 13 13 13 14 16 18 20 19 20 20 20 17 16 17 17 20 17 17 18 18 17 16 15 14 13 12 11 11 10 10 9 8 8 7 7 6 6 6 6 6 7 7
12 11 10 10 12 14 18 18 18 17 20 21 20 18 17 17 17 19 19 18 17 17 16 15 14 13 11 11 11 11 10 9 8 8 7 7 6 6 6 6 7 7 7 7
11 13 13 11 12 14 19 21 22 21 19 19 20 18 18 18 15 15 15 16 16 16 15 14 14 12 12 11 10 10 9 9 8 7 7 7 7 6 6 7 7 7 7 7
11 11 10 12 16 14 18 20 20 20 21 19 20 19 19 16 14 14 15 14 14 14 14 14 12 12 11 10 9 9 9 8 7 7 7 7 7 6 6 6 7 7 7 7
8 9 10 10 12 15 16 17 19 20 20 18 17 18 17 18 15 16 16 16 15 14 12 13 12 11 10 10 9 9 8 7 7 7 7 7 6 6 7 7 7 7 7 6
8 9 10 11 12 10 13 17 18 19 19 19 17 15 17 18 17 16 15 16 14 12 11 11 11 11 10 9 8 7 7 7 7 7 7 6 7 7 7 7 7 6 6 5

GFSCGP_850_temp_291.txt.gz
Temp
20 23 23 23 23 23 23 23 23 24 25 24 26 25 27 25 22 23 23 24 24 23 21 23 23 23 23 23 23 23 23 23 22 21 20 20 19 18 17 17 16 15 15 15
22 22 23 22 21 22 22 23 24 25 24 24 26 27 27 24 23 22 23 23 23 21 22 23 23 23 23 23 23 23 23 22 21 21 20 19 19 18 17 16 15 14 14 13
22 23 21 22 22 23 23 23 23 24 24 25 24 26 26 25 22 21 21 22 21 21 20 22 22 23 22 22 23 23 22 21 20 20 19 19 18 17 16 16 15 14 13 13
23 23 22 22 23 23 22 23 23 23 23 25 24 26 26 25 26 23 22 21 21 20 18 20 21 21 21 21 21 21 20 20 19 19 18 18 18 17 16 14 14 13 13 13
23 22 22 22 23 23 23 23 23 23 23 23 24 25 28 24 28 29 24 20 19 19 18 19 20 20 19 20 20 20 19 19 18 18 17 17 16 16 14 13 13 13 13 12
23 21 23 24 23 23 24 23 22 20 23 24 25 25 27 28 27 27 22 19 18 17 16 16 17 18 18 18 19 19 19 18 18 17 17 16 16 15 15 14 13 12 12 11
21 23 24 23 23 23 23 23 23 23 24 24 21 23 26 27 25 24 24 21 18 16 15 14 17 17 17 18 18 18 17 17 17 16 16 15 15 15 14 13 13 12 11 10
22 22 23 23 24 24 23 23 23 22 23 25 21 24 27 24 22 21 20 20 17 16 15 14 17 17 18 18 18 17 17 16 16 15 15 15 14 14 13 13 12 11 11 10
21 21 22 22 23 24 22 22 23 22 18 22 25 24 25 25 24 22 19 17 15 15 15 14 15 17 17 17 17 17 16 15 15 15 15 14 14 13 12 12 12 11 10 9
22 21 23 23 23 22 23 23 22 21 21 22 24 22 25 26 27 26 21 18 15 14 15 14 14 16 16 16 16 15 14 14 15 15 14 14 13 13 12 12 12 11 10 10
21 21 22 23 23 24 23 23 21 21 22 23 22 24 24 26 26 25 25 21 18 13 15 13 16 15 15 16 15 14 14 15 15 15 14 13 13 12 12 12 12 11 9 8
18 19 20 22 23 21 24 24 23 23 21 20 20 23 25 24 25 23 23 21 18 16 13 15 14 15 15 15 15 14 15 16 14 14 13 13 12 12 12 12 11 10 9 7
19 19 20 21 22 21 22 22 21 19 20 22 22 23 24 23 23 24 22 20 17 16 14 13 13 14 15 15 15 15 16 14 13 13 12 12 12 12 11 11 10 9 7 7
15 17 19 21 21 21 20 21 21 21 21 22 22 23 24 25 25 25 22 19 17 15 14 13 13 14 15 16 16 16 14 13 13 12 12 12 12 11 11 10 8 7 7 6
15 17 17 19 19 19 20 21 21 20 21 20 23 23 24 24 24 24 22 18 16 15 14 13 14 16 16 16 15 15 13 13 13 12 12 12 11 11 9 8 8 7 7 6
13 16 15 17 19 20 19 21 21 21 21 21 21 22 24 23 22 21 21 19 18 17 15 14 14 16 16 16 15 14 13 13 12 12 12 11 10 10 8 8 7 7 7 6
13 15 16 17 18 19 19 21 21 22 24 23 23 24 25 23 22 23 23 20 20 18 15 14 16 18 18 17 16 15 13 13 13 12 11 10 10 9 8 7 7 7 6 6
13 13 15 16 16 16 21 21 21 21 22 23 23 23 24 23 23 22 22 21 20 18 15 14 17 18 18 16 14 13 14 13 12 11 10 10 9 8 7 7 7 6 6 6
11 13 14 15 16 18 19 20 21 22 22 24 22 23 23 22 19 21 25 25 21 18 17 17 18 19 18 16 15 14 14 12 11 10 10 9 8 8 7 7 6 6 6 6
10 11 13 14 14 16 19 20 21 22 20 24 24 23 23 19 23 26 23 24 21 16 15 16 17 18 17 16 15 14 12 11 10 10 9 9 8 8 7 6 6 6 6 7
9 9 11 12 14 16 19 20 20 18 19 15 17 19 19 20 22 20 21 21 18 16 16 15 16 17 16 15 14 13 12 11 10 10 9 8 8 7 7 7 6 6 7 7
12 11 11 12 12 13 15 18 18 15 14 15 16 17 18 18 17 18 17 17 16 16 15 15 15 16 15 14 13 12 11 10 10 9 8 7 8 7 7 6 7 7 7 6
12 14 14 14 16 14 13 14 13 13 14 15 15 15 16 16 16 14 16 15 14 15 14 14 16 15 14 13 12 11 11 10 9 8 7 8 8 7 7 7 7 7 6 6
12 10 11 12 15 16 14 13 13 13 13 12 13 13 14 15 15 14 14 12 12 13 14 15 14 13 13 11 10 10 10 9 8 8 8 8 7 7 7 7 7 7 6 5
10 9 11 11 12 12 13 14 11 10 10 11 12 12 13 14 14 12 11 11 11 11 12 13 14 13 12 10 11 11 9 8 8 8 8 7 7 7 7 7 7 6 6 5
7 8 9 10 11 11 10 10 9 9 9 10 11 12 13 12 12 12 10 10 12 11 10 12 13 11 10 10 11 9 8 8 8 7 7 7 7 7 7 7 7 6 6 5